Location: Derby
(52.9213°N, 1.4761°W)
Time: 16:03:19
(UTC+01:00)

Vanguard 1 - Pass Details

Date: 21 May 2025
Orbit: 649 x 3822 km, 34.3° (Epoch: 14 June)

Event Time Altitude Azimuth Distance (km) Brightness Sun altitude
Rises 21:03:26 0° 255° (WSW) 6,696 15.0 -0.4°
Reaches altitude 10° 21:09:27 10° 246° (WSW) 5,101 14.1 -1.1°
Maximum altitude 21:19:19 25° 198° (SSW) 2,950 12.3 -2.3°
Drops below altitude 10° 21:25:46 10° 146° (SSE) 3,211 12.1 -3.0°
Enters shadow 21:27:35 - 137° (SE) 3,600 12.3 -3.2°
Sets 21:28:33 0° 133° (SE) 3,848 - -3.4°
